{"data":{"norad_id":68035,"intl_designator":"2026-040W","name":"STARLINK-36943","alt_names":[],"object_type":"PAYLOAD","status":"ACTIVE","operator":null,"country":"US","launch_date":"2026-03-01","launch_site_code":"AFWTR","launch_vehicle":null,"mission":null,"orbit_class":"UNKNOWN","rcs_meters":null,"size_class":null,"mass_kg":null,"dimensions":null,"purposes":["comms"],"wikipedia_slug":null,"has_3d_model":false,"image_url":null,"decayed_at":null,"tle_current":{"epoch":"2026-05-24T19:34:15.394944Z","epoch_age_seconds":86920,"freshness":"FRESH","line1":"1 68035U 26040W   26144.81545596  .00019055  00000+0  59096-3 0  9995","line2":"2 68035  97.2849  93.9025 0001802 105.1259 255.0183 15.33449301 14265","mean_motion":15.33449301,"eccentricity":0.0001802,"inclination_deg":97.2849,"raan_deg":93.9025,"arg_perigee_deg":105.1259,"mean_anomaly_deg":255.0183,"bstar":0.00059096,"rev_number":1426,"period_min":93.905941269851,"perigee_km":464.29714889658,"apogee_km":466.76360661952,"semimajor_km":6843.6673777581,"source":"CELESTRAK","updated_at":"2026-05-25T13:38:21.808648Z"}}}